Acapulco, Mexico

2:29 AM CDT on October 01, 2016 (GMT -0500)
Gen Juan N Alvarez International

Weather History for MMAA - December, 2012

Change the Weather History Date:

Thursday, December 20, 2012

  Actual Average Record
Temperature  
Mean Temperature 80 °F -  
Max Temperature 89 °F 85 °F 92 °F (2014)
Min Temperature 71 °F 71 °F 68 °F (2010)
Cooling Degree Days 15    
Growing Degree Days 30 (Base 50)    
Moisture  
Dew Point 75 °F    
Average Humidity 77    
Maximum Humidity 89    
Minimum Humidity 53    
Precipitation  
Precipitation 0.00 in - - ()
Sea Level Pressure  
Sea Level Pressure 29.86 in    
Wind  
Wind Speed 2 mph ()    
Max Wind Speed 16 mph    
Max Gust Speed -    
Visibility 8.6 miles    
Events      
Averages and records for this station are not official NWS values.
T = Trace of Precipitation, MM = Missing Value Source: Averaged Metar Reports

Daily Weather History Graph

Daily Weather History Graph

Search for Another Location

Airport or City:

Trip Planner

Search our weather history database for the weather conditions in past years. The results will help you decide how hot, cold, wet, or windy it might be!

Date:

Astronomy

Dec. 20, 2012 Rise Set
Actual Time 7:03 AM CST 6:10 PM CST
Civil Twilight 6:39 AM CST 6:34 PM CST
Nautical Twilight 6:12 AM CST 7:01 PM CST
Astronomical Twilight 5:45 AM CST 7:28 PM CST
Moon 12:48 PM CST (12/20) 12:37 AM CST (12/20)
Length of Visible Light 11h 54m
Length of Day
11h 07m
First Quarter, 55% of the Moon is Illuminated
Dec 20
First Quarter
Dec 28
Full
Jan 4
Last Quarter
Jan 11
New
Jan 18
First Quarter

Hourly Weather History & Observations

Time (CST) Temp. Heat Index Dew Point Humidity Pressure Visibility Wind Dir Wind Speed Gust Speed Precip Events Conditions
1:11 AM 80.6 °F 87.1 °F 77.0 °F 89% 29.87 in 8.0 mi Calm Calm - N/A   Clear
1:45 AM 80.6 °F 87.1 °F 77.0 °F 89% 29.87 in 8.0 mi Calm Calm - N/A   Clear
2:45 AM 80.6 °F 87.1 °F 77.0 °F 89% 29.87 in 8.0 mi Calm Calm - N/A   Clear
3:45 AM 80.6 °F 87.1 °F 77.0 °F 89% 29.85 in 8.0 mi Calm Calm - N/A   Clear
4:45 AM 78.8 °F - 73.4 °F 83% 29.83 in 8.0 mi Calm Calm - N/A   Clear
5:45 AM 78.8 °F - 73.4 °F 83% 29.85 in 8.0 mi Calm Calm - N/A   Clear
6:45 AM 77.0 °F - 71.6 °F 83% 29.85 in 8.0 mi Calm Calm - N/A   Clear
7:48 AM 77.0 °F - 73.4 °F 89% 29.87 in 8.0 mi Calm Calm - N/A   Clear
8:43 AM 78.8 °F - 73.4 °F 83% 29.88 in 8.0 mi Calm Calm - N/A   Clear
8:45 AM 79 °F - 73 °F 76% 29.91 in 12 mi West 2.2 mph - -   Clear
9:42 AM 82.4 °F 88.2 °F 73.4 °F 74% 29.91 in 8.0 mi Calm Calm - N/A   Clear
10:42 AM 86.0 °F 95.1 °F 75.2 °F 70% 29.91 in 8.0 mi Calm Calm - N/A   Clear
11:42 AM 87.8 °F 97.6 °F 75.2 °F 66% 29.89 in 8.0 mi WSW 8.1 mph - N/A   Clear
11:50 AM 87 °F - 72 °F 53% 29.90 in 12 mi NE 6.7 mph - -   Clear
12:47 PM 87.8 °F 102.5 °F 78.8 °F 75% 29.86 in 8.0 mi WSW 9.2 mph - N/A   Clear
1:42 PM 87.8 °F 99.7 °F 77.0 °F 70% 29.83 in 8.0 mi WSW 9.2 mph - N/A   Unknown
2:42 PM 87.8 °F 95.6 °F 73.4 °F 62% 29.80 in 8.0 mi WSW 11.5 mph - N/A   Clear
2:50 PM 87 °F - - % 29.81 in 12 mi NE 13.4 mph - -   Clear
3:45 PM 87.8 °F 95.6 °F 73.4 °F 62% 29.82 in 8.0 mi WSW 10.4 mph - N/A   Clear
4:42 PM 87.8 °F 95.6 °F 73.4 °F 62% 29.82 in 8.0 mi WSW 9.2 mph - N/A   Clear
5:45 PM 83 °F - 73 °F 65% 29.85 in 12 mi SE 15.7 mph - -   Clear
5:46 PM 86.0 °F 95.1 °F 75.2 °F 70% 29.84 in 8.0 mi WSW 9.2 mph - N/A   Clear
6:45 PM 86.0 °F 95.1 °F 75.2 °F 70% 29.83 in 8.0 mi Calm Calm - N/A   Partly Cloudy
7:42 PM 84.2 °F 94.1 °F 77.0 °F 79% 29.84 in 8.0 mi Calm Calm - N/A   Partly Cloudy
8:43 PM 84.2 °F 94.1 °F 77.0 °F 79% 29.87 in 8.0 mi Calm Calm - N/A   Clear
9:43 PM 80.6 °F 86.2 °F 75.2 °F 84% 29.91 in 8.0 mi Calm Calm - N/A   Clear
10:45 PM 80.6 °F 86.2 °F 75.2 °F 84% 29.92 in 8.0 mi Calm Calm - N/A   Scattered Clouds
11:45 PM 78.8 °F - 75.2 °F 89% 29.90 in 8.0 mi Calm Calm - N/A   Scattered Clouds